This is the latest recevied weather packets stored in our database for station/object KB9PMA-1. If no packets are shown the sender has not sent any weather packets the latest 1 day(s).
| Time | Temp. | Humidity | Pressure | Rain* | Wind** | Luminosity | Snow |
|---|---|---|---|---|---|---|---|
| 1778032075 | 8.89° C | 96% | 1010.5 hPa | 1.78 mm | 0 m/s | - | - |
| 1778031775 | 8.89° C | 96% | 1010.6 hPa | 1.52 mm | 0 m/s | - | - |
| 1778031475 | 8.89° C | 96% | 1010.6 hPa | 1.27 mm | 0 m/s | - | - |
| 1778031175 | 8.89° C | 96% | 1010.6 hPa | 1.52 mm | 0 m/s | - | - |
| 1778030875 | 8.89° C | 96% | 1010.6 hPa | 1.27 mm | 0 m/s | - | - |
| 1778030575 | 8.89° C | 96% | 1010.5 hPa | 1.27 mm | 0 m/s | - | - |
| 1778030275 | 8.89° C | 96% | 1010.6 hPa | 1.02 mm | 0 m/s | - | - |
| 1778029976 | 8.89° C | 96% | 1010.5 hPa | 1.27 mm | 0 m/s | - | - |
| 1778029676 | 8.89° C | 96% | 1010.4 hPa | 1.27 mm | 0 m/s | - | - |
| 1778029375 | 8.89° C | 96% | 1010.4 hPa | 1.52 mm | 0 m/s | - | - |
| 1778029076 | 8.89° C | 96% | 1010.3 hPa | 1.52 mm | 0 m/s | - | - |
| 1778028775 | 8.89° C | 96% | 1010.3 hPa | 1.78 mm | 0 m/s | - | - |
| 1778028476 | 8.33° C | 96% | 1010.3 hPa | 1.78 mm | 0 m/s | - | - |
| 1778028176 | 8.33° C | 96% | 1010.4 hPa | 2.03 mm | 0 m/s | - | - |
| 1778027876 | 8.33° C | 96% | 1010.3 hPa | 2.29 mm | 0 m/s | - | - |
| 1778027576 | 8.33° C | 96% | 1010.3 hPa | 2.29 mm | 0 m/s | - | - |
| 1778027276 | 8.33° C | 96% | 1010.3 hPa | 2.29 mm | 0 m/s | - | - |
| 1778026976 | 8.89° C | 96% | 1010.2 hPa | 2.29 mm | 0 m/s | - | - |
| 1778026676 | 8.89° C | 96% | 1010.3 hPa | 2.54 mm | 0 m/s | - | - |
| 1778026376 | 8.89° C | 96% | 1010.3 hPa | 2.29 mm | 0 m/s | - | - |
| 1778026076 | 8.89° C | 96% | 1010 hPa | 2.54 mm | 0 m/s | - | - |
| 1778025776 | 8.89° C | 95% | 1010.2 hPa | 2.29 mm | 0 m/s | - | - |
| 1778025476 | 8.89° C | 95% | 1010.1 hPa | 2.03 mm | 0 m/s | - | - |
| 1778025176 | 8.89° C | 95% | 1010.1 hPa | 1.78 mm | 0 m/s | - | - |
| 1778024876 | 8.89° C | 95% | 1010.1 hPa | 1.78 mm | 0 m/s | - | - |
* Rain latest hour (hover to see other rain measurements)
** Current wind speed in m/s (hover to see current wind gust speed)